Simultaneous Nadir Overpasses (SNOs) Predictions

Prediction of SNOs between GOES-17 and TERRA Satellite Orbit:

Table of predicted SNOs for the next 14.0 days since TLE Epoch: 3/5/2022
Index Date Time (GOES-17) GOES-17 Lat,Lon TERRA Lat,Lon Distance(km) Time Diff (sec)
1 03/05/2022 19:23:02 0.04,-137.23 -0.28,-135.59 185.90 80
2 03/06/2022 07:47:06 -0.05,-137.23 -0.79,-140.79 405.21 80
3 03/08/2022 07:34:52 -0.04,-137.22 -0.15,-137.84 69.92 80
4 03/10/2022 07:19:57 -0.04,-137.21 0.45,-134.88 264.78 80
5 03/10/2022 19:41:11 0.04,-137.21 0.63,-140.04 321.64 80
6 03/12/2022 19:31:36 0.04,-137.19 0.03,-137.08 12.38 80
7 03/14/2022 19:19:23 0.03,-137.17 -0.64,-134.13 345.52 80
8 03/15/2022 07:40:45 -0.03,-137.15 -0.49,-139.32 246.28 80
9 03/17/2022 07:28:30 -0.03,-137.12 0.14,-136.36 86.58 80
